Wind_Speed
19 18 16 13 10 9 7 6 5 2 2 2 4 7 6 1 5 5 5 5 4 7 5 3 7 9 10 16 17 15 10 13 19 19 7 16 5 9 6 4 3 4 12 16 13
20 19 17 15 12 10 7 5 4 3 2 2 4 6 4 6 9 12 14 9 5 5 7 6 9 10 14 15 17 14 11 20 16 16 4 12 9 10 6 13 5 1 10 7 11
21 19 19 18 15 11 8 6 5 4 4 4 5 6 7 9 14 16 13 6 6 6 1 8 12 10 16 16 17 18 16 20 16 11 16 7 5 7 1 10 11 16 13 11 9
22 21 20 19 17 14 9 7 6 5 5 6 7 7 8 7 4 11 5 5 6 7 6 8 8 12 16 15 15 18 19 23 11 5 7 8 8 8 13 16 3 6 7 16 12
22 21 21 20 18 15 12 9 7 6 5 5 6 7 6 9 18 9 6 5 8 3 11 11 12 13 15 16 16 10 15 14 14 6 7 13 12 13 15 12 17 8 4 6 7
22 21 21 20 20 17 12 9 8 7 6 6 7 7 8 15 7 6 5 7 6 8 9 8 10 10 15 14 14 15 15 17 12 14 15 13 16 15 18 16 16 7 13 15 16
23 22 21 19 19 18 13 9 8 8 8 7 8 8 12 18 4 5 9 8 8 7 8 8 9 9 9 14 13 13 11 13 15 16 14 12 15 19 22 16 22 13 18 18 20
24 23 21 20 17 17 12 8 7 8 8 8 9 9 11 6 12 11 9 9 8 8 8 9 7 12 16 15 8 10 14 16 17 19 16 10 15 17 25 17 14 17 19 19 19
24 22 21 21 17 15 11 7 8 9 9 9 9 10 17 8 13 13 12 12 11 8 8 8 8 14 16 11 12 15 14 19 19 19 12 15 14 19 13 18 16 19 21 22 21
25 23 20 19 18 12 9 9 10 10 7 7 11 9 19 14 13 13 13 12 11 8 9 9 11 11 11 11 12 16 18 13 13 15 15 14 17 16 18 15 21 20 22 22 23
26 23 20 20 17 10 7 8 6 2 12 15 8 14 1 7 8 12 11 10 11 12 12 17 10 12 16 15 16 16 13 16 18 6 17 18 16 16 20 22 23 25 24 23 24
25 23 19 19 14 4 3 5 6 11 16 21 28 26 21 10 12 14 14 13 13 13 15 11 15 13 11 12 14 11 14 16 16 17 16 18 19 17 17 22 27 26 24 24 24
27 24 18 15 7 5 6 10 11 14 10 22 20 14 18 18 17 15 19 16 15 15 14 15 16 9 5 12 15 11 14 15 16 16 18 17 19 19 22 29 32 32 28 25 22
28 25 19 9 5 8 5 6 11 11 6 10 10 6 7 8 18 19 19 17 14 16 16 13 15 12 9 12 12 13 15 14 14 13 12 14 16 19 18 19 15 30 26 25 26
27 25 16 10 8 8 11 12 10 6 6 11 10 5 7 13 9 15 16 21 16 17 13 14 16 10 11 14 14 14 14 15 17 17 17 20 13 17 18 19 19 17 24 22 18
24 23 13 8 7 8 15 11 5 5 7 7 8 8 10 14 10 9 12 15 15 16 17 19 24 19 19 17 16 13 19 16 16 15 15 21 18 20 17 18 14 17 26 25 26
23 18 8 3 6 13 11 7 6 6 4 2 4 3 8 9 12 12 12 12 13 13 16 20 23 23 21 20 20 18 16 13 15 13 16 21 15 13 23 8 6 6 8 9 17
22 11 2 1 11 10 5 8 8 14 11 7 3 4 9 13 14 13 12 14 16 19 18 19 19 18 16 19 17 17 14 12 15 14 20 25 21 17 13 13 15 10 9 17 17
21 5 4 6 11 7 5 6 12 9 11 11 10 11 15 16 18 6 15 11 15 17 17 17 22 21 21 21 21 19 15 15 17 19 16 20 25 26 21 15 16 12 14 15 17
19 6 3 11 11 5 7 8 13 9 11 10 11 10 15 16 12 8 9 5 14 14 18 15 17 14 18 22 20 21 17 16 12 21 22 22 21 16 14 11 12 4 39 14 15
10 8 4 15 5 8 8 5 5 8 11 10 13 15 16 16 17 18 16 16 13 13 16 15 14 19 20 17 20 18 18 15 11 14 11 18 16 16 11 13 12 3 5 26 25
8 5 11 13 5 4 4 5 4 8 9 5 7 11 12 12 13 16 17 17 18 10 8 11 7 16 20 22 24 24 24 20 11 12 5 10 18 18 24 10 26 16 32 30 22
13 9 6 9 3 4 6 8 2 5 7 5 8 9 10 9 8 8 10 12 16 13 8 7 5 12 14 13 17 17 16 16 14 3 11 11 12 17 26 26 24 16 22 34 37
7 4 5 4 4 6 8 10 5 5 3 3 10 11 9 10 9 9 15 12 16 13 7 3 8 14 16 19 19 24 27 24 19 7 16 19 25 26 23 22 24 18 24 33 34
5 5 4 5 6 8 7 9 11 8 1 7 5 5 8 8 10 13 15 13 17 19 19 11 16 18 21 22 21 24 27 24 25 25 21 26 23 23 22 22 25 22 15 21 32
8 8 14 17 12 8 5 8 4 9 4 10 12 12 9 11 13 16 16 14 15 15 15 13 16 18 24 21 23 27 25 24 26 26 27 26 27 17 33 35 30 28 17 18 17
12 10 10 12 13 6 4 5 6 10 10 8 7 10 13 13 16 16 19 23 22 18 17 17 14 15 22 19 21 21 19 22 22 19 17 12 15 18 19 22 29 29 15 7 17
Wind_Direction
19 15 10 1 356 355 345 331 328 320 259 267 332 349 350 173 177 201 245 191 238 239 172 162 231 227 226 233 225 236 260 260 257 260 274 119 170 180 351 315 245 168 61 119 144
14 10 8 4 353 346 343 327 316 310 274 282 326 345 315 245 249 259 241 264 224 176 185 207 210 216 227 224 227 232 235 252 271 342 214 147 161 207 185 248 161 120 103 135 162
10 7 2 358 354 341 332 321 304 291 283 281 304 321 305 280 293 243 208 226 178 175 209 286 265 218 232 228 219 223 245 262 328 6 346 16 146 292 215 244 219 195 179 188 196
2 2 359 353 349 340 319 308 291 280 273 282 296 306 310 271 315 168 221 227 193 203 260 239 244 235 248 244 239 233 252 253 299 279 300 294 303 256 225 251 352 345 141 180 186
355 353 353 351 346 339 323 293 280 270 270 276 285 292 300 253 255 213 253 226 180 239 256 250 243 238 254 254 238 240 262 264 254 280 249 266 260 259 268 244 267 222 227 226 239
352 349 344 344 345 338 325 298 274 266 269 276 282 282 278 275 177 199 180 186 229 243 250 260 263 275 286 271 264 246 238 267 225 240 236 243 256 250 245 252 252 208 228 231 229
345 342 341 336 338 339 328 304 274 263 259 265 273 287 273 239 227 196 188 211 238 247 256 255 272 280 228 274 260 260 275 272 251 243 245 244 251 249 246 237 236 238 233 240 238
347 341 335 333 329 335 327 307 289 270 259 266 260 275 261 247 230 218 218 232 243 246 255 284 268 270 273 266 271 269 256 254 250 221 232 232 258 245 229 216 216 232 234 231 232
345 343 339 331 325 326 322 301 290 280 267 256 251 230 255 220 214 224 225 231 232 244 252 267 267 261 257 235 260 231 244 239 247 215 198 202 250 259 199 207 220 230 234 239 240
344 342 342 336 325 316 317 301 291 281 282 246 238 256 254 235 221 223 227 238 236 242 241 240 248 240 227 247 247 240 221 229 249 159 193 231 240 252 272 216 219 245 245 246 249
342 341 343 340 328 308 320 320 294 237 219 233 266 231 317 204 193 202 215 216 226 236 244 229 241 239 246 233 246 289 307 299 300 308 200 218 228 246 263 273 260 230 236 240 247
344 340 341 344 335 308 324 282 4 319 302 259 256 243 253 247 215 227 212 212 216 239 228 255 223 248 257 304 304 291 285 279 279 281 280 277 268 267 260 258 262 261 244 238 245
345 343 338 349 9 19 324 308 322 321 283 285 241 244 236 229 224 236 209 217 239 225 249 253 298 288 243 283 279 262 269 277 283 295 297 292 270 265 257 250 250 252 251 241 246
343 341 342 341 351 320 303 323 327 321 278 242 184 211 206 210 239 234 210 218 234 252 265 266 276 278 319 275 272 276 280 277 286 290 273 271 280 281 283 281 258 225 237 239 237
339 337 344 346 333 354 327 318 308 303 280 148 125 133 178 201 108 195 222 209 241 252 241 258 278 262 233 257 281 286 304 301 298 289 286 273 273 275 269 261 256 211 216 233 218
337 333 339 337 329 317 325 310 302 235 249 157 125 185 196 221 252 137 206 225 254 256 261 270 279 279 279 279 285 293 295 279 287 274 263 265 256 266 262 264 285 241 199 207 216
337 331 333 12 329 323 318 296 245 244 359 212 138 149 241 248 212 230 197 222 237 253 255 255 249 245 249 265 256 241 251 265 256 254 254 259 254 281 294 349 326 343 205 214 225
338 343 22 38 317 321 327 262 253 278 334 47 50 299 272 278 260 243 255 259 238 237 254 269 269 268 272 264 269 276 271 272 281 275 283 301 293 287 267 277 259 228 274 198 205
343 1 339 316 324 311 268 243 255 348 4 348 330 283 273 253 246 254 279 289 294 294 298 304 296 312 307 311 304 299 277 257 272 288 283 282 291 288 286 253 228 248 251 233 200
347 2 231 331 319 283 255 247 296 43 358 334 312 318 300 302 318 245 263 272 328 346 337 323 302 288 305 313 299 285 288 275 258 268 265 270 274 280 322 1 92 277 275 238 231
351 298 360 335 300 240 254 301 53 41 29 350 334 316 308 312 313 304 305 306 9 5 353 321 294 286 286 274 275 284 284 280 254 286 279 291 266 249 278 1 342 207 299 300 270
356 292 345 346 267 245 354 1 357 0 348 322 296 292 299 321 310 302 298 303 324 26 336 336 301 287 279 291 294 289 286 285 285 278 259 285 271 288 298 317 9 337 309 297 258
328 298 329 345 329 4 21 329 302 358 350 340 303 318 334 303 296 286 306 318 335 356 28 8 296 312 298 297 260 281 302 308 294 125 269 288 276 316 314 313 330 337 332 332 334
311 304 348 347 52 358 0 295 307 142 318 303 308 302 286 279 277 281 294 300 312 318 80 323 270 265 274 283 303 297 295 295 302 289 278 269 289 292 292 299 301 329 323 322 319
288 23 10 313 33 337 299 308 294 294 129 322 299 304 324 313 297 300 292 312 313 302 286 268 267 269 275 283 283 287 286 292 287 287 284 289 281 279 284 284 282 281 291 301 297
346 348 336 290 274 296 281 274 298 302 324 307 306 305 324 302 296 299 304 300 299 298 290 286 280 282 281 288 284 279 284 288 282 280 278 276 275 315 335 331 300 282 263 233 257
346 325 297 296 285 248 288 343 313 314 289 299 298 305 298 304 321 306 288 281 274 279 278 279 275 277 277 284 288 282 284 283 290 305 342 333 335 341 354 342 338 323 340 266 250
Height
1526 1523 1520 1518 1516 1514 1512 1510 1508 1507 1507 1506 1505 1504 1502 1500 1500 1499 1500 1499 1499 1497 1496 1496 1500 1500 1500 1498 1497 1494 1496 1493 1478 1467 1459 1464 1472 1475 1478 1477 1479 1479 1484 1486 1490
1527 1524 1521 1518 1516 1514 1512 1510 1509 1508 1507 1506 1505 1504 1502 1501 1499 1499 1499 1497 1497 1497 1496 1497 1497 1497 1497 1494 1492 1494 1492 1481 1463 1461 1457 1461 1471 1472 1479 1480 1480 1483 1488 1491 1493
1528 1525 1521 1518 1516 1513 1511 1510 1508 1507 1507 1506 1505 1504 1502 1501 1499 1494 1494 1496 1497 1496 1496 1495 1495 1494 1493 1488 1486 1486 1487 1471 1469 1469 1467 1466 1472 1475 1479 1479 1480 1483 1487 1492 1493
1529 1525 1522 1518 1515 1513 1510 1509 1508 1507 1506 1506 1505 1504 1502 1501 1494 1492 1494 1495 1496 1496 1495 1496 1495 1492 1489 1482 1482 1482 1478 1475 1476 1473 1475 1476 1475 1477 1480 1480 1479 1481 1483 1488 1492
1528 1525 1521 1518 1514 1512 1509 1508 1507 1506 1506 1505 1504 1503 1502 1500 1493 1490 1492 1494 1495 1495 1494 1493 1491 1489 1485 1478 1477 1477 1478 1473 1478 1478 1480 1480 1479 1479 1478 1480 1479 1482 1486 1489 1492
1528 1524 1520 1517 1513 1510 1507 1506 1505 1505 1505 1505 1504 1503 1502 1498 1489 1490 1491 1493 1494 1495 1493 1492 1489 1486 1482 1477 1475 1475 1475 1472 1476 1477 1479 1480 1480 1479 1480 1480 1479 1481 1485 1488 1492
1526 1522 1518 1515 1512 1509 1506 1504 1504 1504 1503 1503 1503 1502 1501 1494 1492 1490 1492 1493 1493 1493 1492 1491 1491 1489 1484 1480 1477 1476 1477 1474 1474 1474 1476 1476 1478 1475 1475 1476 1477 1479 1483 1485 1487
1525 1520 1517 1513 1510 1507 1504 1503 1502 1501 1501 1502 1501 1501 1495 1489 1490 1490 1491 1491 1492 1492 1492 1491 1491 1489 1485 1482 1477 1478 1478 1481 1467 1468 1471 1476 1482 1466 1467 1472 1474 1478 1479 1480 1482
1523 1519 1515 1511 1508 1505 1502 1501 1500 1499 1499 1499 1500 1498 1490 1485 1487 1488 1489 1489 1489 1491 1491 1491 1491 1488 1483 1482 1481 1474 1481 1472 1464 1454 1464 1471 1476 1463 1461 1467 1471 1474 1475 1476 1477
1521 1517 1513 1509 1505 1503 1501 1499 1497 1497 1497 1497 1497 1501 1484 1483 1483 1486 1486 1487 1487 1488 1489 1489 1487 1484 1478 1477 1485 1468 1467 1458 1460 1453 1459 1465 1466 1463 1462 1462 1466 1469 1471 1472 1473
1519 1515 1511 1507 1503 1501 1500 1497 1498 1498 1496 1490 1484 1482 1478 1480 1480 1482 1484 1486 1485 1486 1485 1480 1480 1480 1470 1463 1460 1460 1463 1466 1453 1446 1454 1457 1459 1460 1459 1459 1458 1459 1462 1464 1466
1517 1513 1509 1505 1501 1500 1500 1498 1496 1498 1488 1482 1478 1477 1476 1478 1480 1482 1483 1485 1483 1483 1478 1477 1475 1467 1463 1461 1462 1465 1471 1470 1459 1453 1454 1454 1454 1453 1454 1455 1453 1452 1453 1456 1458
1516 1511 1507 1504 1501 1500 1500 1499 1497 1496 1489 1471 1468 1469 1471 1475 1475 1475 1479 1480 1478 1477 1473 1471 1461 1459 1465 1469 1470 1469 1472 1469 1466 1456 1451 1453 1454 1452 1447 1445 1446 1445 1446 1449 1451
1514 1509 1506 1503 1503 1500 1499 1498 1497 1495 1489 1461 1463 1467 1469 1471 1471 1472 1472 1477 1475 1474 1468 1465 1459 1458 1463 1469 1466 1472 1458 1457 1458 1463 1472 1453 1465 1446 1435 1432 1430 1434 1439 1442 1447
1512 1507 1505 1502 1502 1501 1501 1498 1496 1496 1500 1456 1461 1466 1465 1468 1464 1467 1469 1471 1472 1467 1467 1468 1460 1458 1465 1465 1460 1463 1456 1460 1461 1466 1465 1461 1465 1444 1432 1430 1424 1424 1431 1435 1440
1510 1506 1503 1502 1500 1501 1500 1497 1497 1497 1492 1451 1456 1461 1465 1465 1463 1464 1468 1470 1469 1466 1464 1463 1459 1457 1457 1455 1456 1456 1460 1459 1460 1462 1472 1455 1456 1437 1432 1423 1415 1410 1420 1429 1435
1508 1504 1501 1501 1502 1500 1499 1498 1496 1494 1450 1452 1454 1458 1459 1459 1459 1460 1463 1468 1471 1477 1472 1459 1455 1451 1451 1453 1450 1452 1462 1474 1475 1470 1460 1433 1438 1432 1422 1419 1417 1418 1419 1425 1431
1505 1502 1500 1500 1501 1499 1497 1497 1501 1467 1460 1454 1460 1462 1468 1462 1458 1456 1458 1462 1457 1459 1461 1464 1465 1445 1441 1443 1447 1448 1454 1471 1486 1481 1467 1436 1443 1428 1414 1413 1419 1420 1422 1424 1429
1503 1501 1501 1502 1499 1498 1496 1493 1484 1475 1479 1476 1471 1470 1465 1457 1456 1459 1462 1460 1457 1456 1465 1463 1459 1445 1444 1444 1444 1445 1447 1441 1453 1453 1462 1446 1437 1418 1409 1407 1412 1417 1421 1424 1427
1504 1500 1501 1499 1497 1497 1494 1487 1480 1486 1487 1482 1483 1474 1476 1465 1462 1460 1461 1457 1459 1461 1462 1465 1472 1458 1453 1451 1447 1445 1441 1455 1449 1469 1466 1440 1440 1431 1421 1422 1429 1436 1430 1425 1428
1505 1502 1499 1496 1495 1494 1491 1477 1477 1486 1491 1491 1488 1486 1481 1478 1474 1472 1469 1464 1465 1470 1474 1473 1471 1466 1461 1460 1457 1452 1445 1443 1452 1457 1469 1464 1435 1414 1419 1428 1427 1428 1428 1429 1429
1507 1501 1499 1496 1494 1485 1487 1489 1491 1487 1491 1492 1491 1489 1485 1484 1485 1482 1479 1473 1472 1478 1483 1481 1479 1475 1469 1459 1455 1451 1450 1448 1463 1471 1477 1478 1458 1426 1420 1433 1442 1431 1430 1433 1429
1512 1504 1500 1498 1494 1486 1492 1493 1490 1493 1495 1496 1495 1492 1490 1494 1496 1484 1480 1478 1479 1482 1487 1490 1484 1486 1475 1466 1453 1453 1446 1451 1450 1465 1479 1479 1455 1435 1430 1429 1433 1441 1444 1443 1435
1516 1502 1500 1501 1501 1499 1497 1495 1491 1492 1497 1499 1498 1496 1493 1492 1489 1489 1486 1483 1484 1486 1491 1494 1494 1494 1486 1481 1473 1467 1455 1453 1458 1469 1467 1461 1454 1442 1440 1437 1434 1438 1441 1434 1440
1516 1507 1512 1502 1498 1504 1500 1498 1494 1493 1495 1499 1496 1492 1493 1497 1494 1493 1489 1486 1487 1488 1489 1489 1491 1486 1478 1475 1471 1464 1458 1459 1458 1452 1458 1441 1443 1434 1430 1429 1429 1431 1432 1432 1438
1523 1521 1515 1510 1504 1503 1498 1495 1494 1496 1499 1500 1499 1496 1497 1500 1498 1497 1494 1493 1491 1489 1487 1486 1485 1482 1474 1475 1470 1462 1458 1457 1451 1447 1443 1440 1434 1435 1437 1432 1423 1423 1424 1429 1431
1527 1525 1521 1510 1502 1499 1493 1494 1498 1501 1501 1499 1500 1500 1499 1497 1497 1498 1498 1496 1493 1492 1491 1490 1486 1486 1476 1477 1470 1463 1459 1451 1444 1440 1446 1457 1449 1444 1445 1440 1433 1429 1423 1429 1426